RH
39 52 50 46 52 68 79 59 42 21 14 24 27 25 27 30 22 22 26 39 50 46 43 41 40 40 37 34 32 27 25 26 36 39 41 43 39 39 33 30 30 31 32 33
44 51 61 72 70 56 42 68 76 39 19 33 41 37 34 40 36 26 27 34 43 48 47 47 47 46 42 35 33 31 27 26 29 39 37 42 41 38 39 34 32 33 34 36
42 35 53 58 65 81 36 48 72 65 34 43 68 62 38 38 49 34 32 34 45 53 54 56 54 48 44 40 36 35 32 29 30 36 38 41 46 47 43 40 36 32 35 39
45 39 53 73 76 80 46 42 67 79 54 50 65 71 63 48 40 44 37 44 62 64 62 61 58 52 49 47 46 44 42 40 41 46 49 43 42 40 37 34 35 34 36 38
58 55 64 68 65 59 58 64 76 63 42 57 62 92 61 67 57 53 57 67 72 73 67 64 59 58 54 51 49 48 48 48 49 51 64 61 52 49 45 40 38 38 38 39
57 50 55 48 48 56 58 60 71 67 43 58 46 76 62 64 62 70 70 78 79 76 68 62 66 62 57 55 51 49 48 51 49 51 53 61 73 56 52 46 41 38 37 38
47 43 37 45 58 49 57 73 90 85 85 69 60 83 62 74 78 77 76 76 75 75 73 67 63 64 61 55 56 55 53 53 53 51 51 50 58 60 50 47 44 40 39 39
59 63 59 71 74 58 72 71 75 95 93 80 77 77 77 84 93 96 88 85 85 83 74 71 73 72 69 63 59 58 55 54 53 55 52 49 50 57 53 50 48 44 41 41
93 76 63 61 49 66 64 70 66 78 88 83 78 81 90 86 88 98 97 92 90 90 85 81 78 74 68 63 62 61 58 53 52 50 53 53 47 51 55 55 56 50 47 46
97 90 64 72 71 74 72 74 76 90 83 88 82 85 99 98 94 95 98 95 94 91 89 84 80 77 72 68 66 62 58 55 53 47 47 52 51 57 64 58 61 53 51 51
94 99 75 70 77 80 74 78 75 70 78 90 97 99 98 99 98 94 98 95 95 89 86 80 74 68 62 58 56 54 54 57 51 49 47 48 51 59 62 66 64 60 61 55
82 98 94 86 78 80 82 77 71 82 85 94 97 98 99 97 98 96 94 98 99 92 84 74 65 59 53 54 55 55 60 63 63 59 55 60 64 66 73 73 70 74 76 63
76 84 88 80 89 93 91 80 79 87 95 98 96 98 98 98 97 95 93 94 85 77 69 66 64 63 61 59 60 60 71 69 71 66 64 67 69 69 80 82 77 80 84 67
75 81 85 88 84 91 99 94 94 93 98 96 97 98 98 98 97 92 87 80 69 64 63 67 68 67 66 68 67 65 72 82 76 72 75 75 66 65 81 80 80 82 85 66
83 91 95 99 94 98 98 98 98 99 99 94 98 97 95 91 87 85 82 77 70 67 69 73 73 70 71 72 73 72 73 76 82 73 78 83 78 75 71 85 80 89 75 74
88 97 99 97 97 93 97 98 96 98 98 98 97 97 96 90 86 79 77 77 75 74 69 69 68 72 77 78 77 77 74 74 78 83 81 78 91 79 77 68 71 73 79 83
82 94 97 96 95 94 90 97 97 97 96 95 92 94 90 89 87 78 75 73 72 69 67 66 68 70 73 77 78 79 79 80 77 80 82 84 90 94 83 82 98 95 98 93
85 82 91 92 91 89 98 98 95 91 91 85 86 85 83 81 79 76 76 75 74 73 68 68 68 70 71 71 78 85 85 84 83 85 89 88 87 87 88 80 80 97 95 83
82 85 96 97 94 97 90 93 96 93 92 89 81 77 76 78 79 74 77 76 74 74 70 67 68 64 67 66 70 75 82 84 84 84 82 90 96 94 90 82 77 93 82 99
84 88 98 97 94 96 92 86 88 85 85 88 87 83 74 73 69 66 69 71 74 76 70 67 68 66 64 67 67 64 60 66 77 83 84 90 94 97 95 98 92 97 92 99
87 90 92 95 92 88 88 85 80 76 82 82 83 81 75 72 70 68 65 69 72 71 69 67 67 66 64 66 65 63 58 55 57 67 80 86 92 97 97 97 94 98 99 99
84 91 86 88 86 85 81 68 70 77 83 84 83 81 79 75 72 70 68 68 68 65 65 63 61 61 59 60 59 58 54 54 55 57 60 68 87 93 95 96 98 97 96 98
86 78 85 79 84 84 77 72 73 75 75 78 78 78 74 72 71 70 69 66 65 66 64 62 58 58 58 58 58 58 60 61 60 59 60 62 64 67 78 94 98 96 96 97
94 79 74 77 78 76 74 74 74 76 75 76 77 80 80 78 77 75 73 71 68 65 62 60 59 58 58 58 59 63 67 67 66 64 61 58 63 65 67 67 73 83 91 96
91 85 76 77 76 75 74 75 76 75 76 76 78 78 77 73 72 72 72 70 68 66 64 61 59 58 58 58 60 61 61 60 60 60 62 63 63 65 67 66 67 67 68 72
87 87 85 79 76 75 77 77 77 77 78 82 80 78 78 77 75 73 71 71 69 67 66 64 62 62 61 61 60 59 57 56 57 56 56 56 57 58 64 68 70 69 68 70